User: anonymous   Login
Location: Oshawa
(43.9000°N, 78.8670°W)
Time: 09:07:04
(UTC-04:00)
Language:

Cosmos 1408 Rocket - Orbit

View from above orbital plane
View from above orbital plane
View from above satellite
View from above satellite

Ground track
Ground track

The orbit data is extracted from the following two-line orbital elements,

1 13553U 82092B   16242.35935926  .00000099  00000-0  90205-5 0  9994
2 13553  82.5709 145.9713 0019965 290.8633 204.8695 14.84073057833750
Epoch (UTC): 29 August 2016 08:37:28
Eccentricity: 0.0019965
inclination: 82.5709°
perigee height: 602 km
apogee height: 630 km
right ascension of ascending node: 145.9713°
argument of perigee: 290.8633°
revolutions per day: 14.84073057
mean anomaly at epoch: 204.8695°
orbit number at epoch: 83375

The dashed part of the orbit path shows where the satellite is in the earth's shadow,  

DLR